CDT,Max TemperatureF,Mean TemperatureF,Min TemperatureF,Max Dew PointF,MeanDew PointF,Min DewpointF,Max Humidity, Mean Humidity, Min Humidity, Max Sea Level PressureIn, Mean Sea Level PressureIn, Min Sea Level PressureIn, Max VisibilityMiles, Mean VisibilityMiles, Min VisibilityMiles, Max Wind SpeedMPH, Mean Wind SpeedMPH, Max Gust SpeedMPH,PrecipitationIn, CloudCover, Events, WindDirDegrees
2012-10-1,66,52,37,51,40,30,89,59,28,30.23,30.14,30.00,10,10,5,25,11,35,0.10,2,Rain,342
2012-10-2,86,61,35,35,32,31,89,52,14,30.08,29.86,29.71,10,10,10,24,12,30,0.00,0,,203
2012-10-3,72,56,39,40,36,32,79,52,24,30.21,29.84,29.62,10,10,10,35,18,47,0.00,3,,286
2012-10-4,47,38,29,35,30,23,89,67,45,30.42,30.35,30.23,10,10,10,29,11,37,0.01,6,Rain,320
2012-10-5,49,37,25,27,21,12,84,55,25,30.44,30.40,30.37,10,10,10,18,8,23,0.00,5,,310
2012-10-6,47,34,21,21,16,11,84,54,23,30.49,30.42,30.33,10,10,10,15,7,22,0.00,1,,310
2012-10-7,60,40,19,27,21,16,96,58,20,30.32,30.12,29.94,10,10,10,22,10,26,0.00,0,,263
2012-10-8,70,53,36,40,30,23,66,45,24,29.92,29.85,29.79,10,10,10,23,9,28,0.00,4,,301
2012-10-9,52,39,26,40,30,21,82,59,36,30.22,30.05,29.88,10,10,10,26,13,33,T,5,Rain,313
2012-10-10,70,48,26,36,29,22,84,54,24,30.22,30.06,29.90,10,10,10,23,11,30,0.00,2,,232
2012-10-11,49,40,31,34,29,25,79,61,42,30.40,30.22,29.91,10,10,10,20,11,28,0.00,0,,31
2012-10-12,62,46,30,37,28,19,78,54,29,30.41,30.10,29.82,10,10,10,30,17,37,0.00,2,,175
2012-10-13,75,58,40,42,36,30,76,51,25,29.92,29.74,29.67,10,10,10,24,10,29,T,2,Rain,300
2012-10-14,72,56,40,38,33,31,70,47,24,30.04,29.99,29.90,10,10,10,26,12,37,0.00,2,,307
2012-10-15,82,58,34,33,31,27,75,45,15,30.01,29.84,29.66,10,10,10,16,7,23,0.00,0,,244
2012-10-16,77,59,41,48,36,30,86,53,20,29.73,29.53,29.24,10,10,10,35,11,45,T,2,Rain,253
2012-10-17,57,51,44,47,27,15,86,53,20,29.75,29.60,29.40,10,10,4,46,25,61,0.02,3,Rain,305
2012-10-18,52,47,41,29,24,17,57,45,33,29.96,29.78,29.70,10,10,7,47,32,67,0.00,6,,316
2012-10-19,59,45,31,28,20,6,78,46,13,29.98,29.90,29.78,10,10,10,23,9,32,0.00,0,,323
2012-10-20,81,55,28,30,22,10,53,34,14,29.76,29.64,29.53,10,10,10,18,5,23,0.00,0,,212
2012-10-21,66,56,45,45,38,23,86,59,32,29.96,29.79,29.54,10,10,10,22,12,29,0.00,1,,4
2012-10-22,47,44,40,45,41,39,100,91,82,30.01,29.92,29.81,10,5,1,14,6,17,0.00,8,,48
2012-10-23,79,62,45,49,45,37,100,62,23,29.87,29.71,29.60,10,8,3,26,12,33,0.00,4,,238
2012-10-24,52,42,32,40,35,30,100,75,50,30.07,29.96,29.87,10,8,1,22,12,30,0.28,6,Rain-Snow,1
2012-10-25,32,30,28,30,27,22,92,82,72,30.45,30.19,29.99,10,7,1,23,14,28,0.05,8,Snow,331
2012-10-26,33,27,21,27,23,20,88,76,63,30.57,30.47,30.35,10,10,10,17,6,22,0.00,6,,273
2012-10-27,46,33,20,33,26,19,92,75,58,30.36,30.24,30.14,10,10,6,18,7,23,0.00,1,,211
2012-10-28,58,39,20,37,28,17,96,68,39,30.24,30.13,30.01,10,8,5,18,6,23,0.00,2,,184
2012-10-29,71,51,31,39,35,30,92,60,27,30.08,30.02,29.96,10,10,10,14,6,20,0.00,1,,176
2012-10-30,70,52,34,41,38,33,92,63,33,30.05,30.00,29.95,10,10,10,14,5,17,0.00,2,,341
2012-10-31,74,54,33,42,36,30,100,60,20,30.08,30.02,29.96,10,10,10,14,7,22,0.00,1,,275